Weather History for Oxford, CT

Change the Weather History Date:

Tuesday, January 21, 2014

  Actual Average Record
Temperature  
Mean Temperature 30 °F -  
Max Temperature 53 °F 28 °F 57 °F (2006)
Min Temperature 8 °F 15 °F 0 °F (2005)
Degree Days  
Heating Degree Days 34    
Moisture  
Dew Point 2 °F    
Average Humidity 53    
Maximum Humidity 67    
Minimum Humidity 11    
Precipitation  
Precipitation 0.00 in - - ()
Sea Level Pressure  
Sea Level Pressure 29.91 in    
Wind  
Wind Speed 10 mph (NNE)    
Max Wind Speed 17 mph    
Max Gust Speed 25 mph    
Visibility 7 miles    
Events Snow    
Averages and records for this station are not official NWS values.
T = Trace of Precipitation, MM = Missing Value Source: NWS Daily Summary

Daily Weather History Graph

Daily Weather History Graph

Search for Another Location

Airport:

Trip Planner

Search our weather history database for the weather conditions in past years. The results will help you decide how hot, cold, wet, or windy it might be!

Date:

Astronomy

Jan. 21, 2014 Rise Set
Actual Time 7:13 AM EST 4:54 PM EST
Civil Twilight 6:43 AM EST 5:25 PM EST
Nautical Twilight 6:09 AM EST 5:58 PM EST
Astronomical Twilight 5:36 AM EST 6:31 PM EST
Moon 10:29 PM EST 9:37 AM EST
Length of Visible Light 10h 41m
Length of Day
9h 41m
Waning Gibbous, 75% of the Moon is Illuminated
Jan 21
Waning Gibbous
Jan 24
Last Quarter
Jan 30
New
Feb 6
First Quarter
Feb 14
Full

Hourly Weather History & Observations

Time (EST) Temp. Windchill Dew Point Humidity Pressure Visibility Wind Dir Wind Speed Gust Speed Precip Events Conditions
12:15 AM 23.0 °F 12.4 °F 8.6 °F 54% 29.88 in 10.0 mi NNW 10.4 mph - N/A   Clear
12:35 AM 23.0 °F 12.4 °F 6.8 °F 50% 29.89 in 10.0 mi NNW 10.4 mph - N/A   Clear
12:55 AM 21.2 °F 11.7 °F 6.8 °F 54% 29.90 in 10.0 mi NNW 8.1 mph - N/A   Clear
1:15 AM 21.2 °F 9.5 °F 6.8 °F 54% 29.91 in 10.0 mi NNW 11.5 mph - N/A   Clear
1:35 AM 21.2 °F 10.9 °F 6.8 °F 54% 29.91 in 10.0 mi NNW 9.2 mph 17.3 mph N/A   Clear
1:55 AM 19.4 °F 7.2 °F 5.0 °F 54% 29.92 in 10.0 mi North 11.5 mph - N/A   Clear
2:15 AM 19.4 °F 9.5 °F 5.0 °F 54% 29.92 in 10.0 mi North 8.1 mph - N/A   Clear
2:35 AM 19.4 °F 11.5 °F 5.0 °F 54% 29.93 in 10.0 mi North 5.8 mph - N/A   Clear
2:55 AM 19.4 °F 8.6 °F 5.0 °F 54% 29.94 in 10.0 mi North 9.2 mph - N/A   Clear
3:15 AM 19.4 °F 7.2 °F 5.0 °F 54% 29.93 in 10.0 mi North 11.5 mph - N/A   Clear
3:35 AM 17.6 °F 5.7 °F 5.0 °F 58% 29.93 in 10.0 mi North 10.4 mph - N/A   Clear
3:55 AM 17.6 °F 7.3 °F 3.2 °F 53% 29.93 in 10.0 mi North 8.1 mph - N/A   Clear
4:15 AM 17.6 °F 8.2 °F 3.2 °F 53% 29.94 in 10.0 mi NNE 6.9 mph - N/A   Clear
4:35 AM 17.6 °F 7.3 °F 3.2 °F 53% 29.95 in 10.0 mi North 8.1 mph - N/A   Clear
4:55 AM 17.6 °F 5.7 °F 3.2 °F 53% 29.95 in 10.0 mi NNE 10.4 mph - N/A   Clear
5:15 AM 17.6 °F 6.4 °F 1.4 °F 49% 29.95 in 10.0 mi NNE 9.2 mph - N/A   Clear
5:35 AM 15.8 °F 3.4 °F 1.4 °F 53% 29.95 in 10.0 mi North 10.4 mph - N/A   Clear
5:45 AM 15.8 °F 4.2 °F 1.4 °F 53% 29.96 in 10.0 mi NNE 9.2 mph - N/A   Mostly Cloudy
6:50 AM 15.8 °F 4.2 °F 1.4 °F 53% 29.96 in 10.0 mi NE 9.2 mph - N/A   Overcast
7:50 AM 15.8 °F 4.2 °F -0.4 °F 49% 29.98 in 10.0 mi NE 9.2 mph - N/A   Mostly Cloudy
8:50 AM 15.8 °F 2.7 °F -2.2 °F 45% 29.97 in 10.0 mi NNE 11.5 mph - N/A   Overcast
9:45 AM 15.8 °F 2.7 °F -2.2 °F 45% 29.98 in 10.0 mi North 11.5 mph - N/A   Overcast
10:27 AM 15.8 °F 5.1 °F -2.2 °F 45% 30.00 in 8.0 mi NE 8.1 mph - N/A Snow Light Snow
10:52 AM 15.8 °F 5.1 °F -2.2 °F 45% 30.00 in - NE 8.1 mph - N/A Snow Light Snow
11:45 AM 14.0 °F 0.5 °F 1.4 °F 57% 29.99 in 1.0 mi North 11.5 mph - N/A Snow Light Snow
12:45 PM 12.2 °F -1.8 °F 3.2 °F 67% 29.95 in 1.0 mi NE 11.5 mph - N/A Snow Light Snow
1:45 PM 12.2 °F -4.8 °F 3.2 °F 67% 29.87 in 1.0 mi NNE 17.3 mph - N/A Snow Light Snow
2:45 PM 12.2 °F -2.5 °F 3.2 °F 67% 29.87 in 1.0 mi NE 12.7 mph 18.4 mph N/A Snow Light Snow
4:45 PM 12.2 °F -0.2 °F 3.2 °F 67% 29.87 in 1.0 mi NE 9.2 mph 17.3 mph N/A Snow Snow
5:45 PM 51.8 °F - 1.4 °F 13% 29.88 in 1.0 mi NE 10.4 mph - N/A   Unknown
6:45 PM 53.6 °F - 1.4 °F 12% 29.89 in 1.0 mi NE 6.9 mph - N/A   Unknown
7:45 PM 53.6 °F - 1.4 °F 12% 29.88 in 1.0 mi NNE 15.0 mph 23.0 mph N/A   Unknown
8:45 PM 53.6 °F - -0.4 °F 11% 29.88 in 1.0 mi NE 12.7 mph 19.6 mph N/A   Unknown
9:15 PM 8.6 °F -7.7 °F -0.4 °F 67% 29.89 in 2.0 mi NNE 13.8 mph 18.4 mph N/A   Overcast
9:35 PM 8.6 °F -8.3 °F -0.4 °F 67% 29.88 in 2.0 mi NNE 15.0 mph 20.7 mph N/A   Overcast
9:55 PM 8.6 °F -8.3 °F -0.4 °F 67% 29.86 in 3.0 mi North 15.0 mph 19.6 mph N/A   Overcast
10:15 PM 8.6 °F -6.3 °F -0.4 °F 67% 29.86 in 3.0 mi North 11.5 mph - N/A   Overcast
10:35 PM 8.6 °F -8.9 °F -0.4 °F 67% 29.85 in 3.0 mi North 16.1 mph 24.2 mph N/A   Overcast
10:55 PM 8.6 °F -8.3 °F -0.4 °F 67% 29.83 in 3.0 mi NNE 15.0 mph 24.2 mph N/A   Overcast
11:15 PM 8.6 °F -7.0 °F -0.4 °F 67% 29.83 in 6.0 mi North 12.7 mph 19.6 mph N/A   Overcast
11:35 PM 8.6 °F -9.5 °F -2.2 °F 62% 29.81 in 8.0 mi North 17.3 mph 25.3 mph N/A   Overcast
11:55 PM 8.6 °F -7.0 °F -2.2 °F 62% 29.80 in 10.0 mi North 12.7 mph 23.0 mph N/A   Overcast